Location: Azul
(36.7830°S, 59.8500°W)
Time: 23:52:35
(UTC-03:00)

TIGRISAT - Pass Details

Date: 31 October 2021
Orbit: 603 x 689 km, 97.7° (Epoch: 27 November)

Event Time Altitude Azimuth Distance (km) Brightness Sun altitude
Rises 19:54:26 0° 349° (N) 2,852 ? -5.1°
Reaches altitude 10° 19:56:47 10° 338° (NNW) 1,963 ? -5.5°
Maximum altitude 20:00:33 30° 276° (W) 1,116 ? -6.2°
Drops below altitude 10° 20:04:25 10° 214° (SW) 2,019 ? -6.9°
Sets 20:06:53 0° 203° (SSW) 2,948 ? -7.4°
